Location: Launay
(47.2429°N, 1.5727°E)
Time: 19:08:12
(UTC+00:00)

MOS 1 - Pass Details

Date: 19 May 2025
Orbit: 876 x 890 km, 98.9° (Epoch: 22 June)

Event Time Altitude Azimuth Distance (km) Brightness Sun altitude
Exits shadow 20:10:09 - 161° (SSE) 3,246 6.7 -6.6°
Reaches altitude 10° 20:11:55 10° 161° (SSE) 2,551 6.2 -6.8°
Maximum altitude 20:17:37 86° 73° (ENE) 899 4.4 -7.6°
Drops below altitude 10° 20:23:21 10° 346° (NNW) 2,565 7.7 -8.3°
Sets 20:25:45 0° 346° (NNW) 3,507 8.5 -8.6°
